Simultaneous Nadir Overpasses (SNOs) Predictions

Prediction of SNOs between GOES-15 and NOAA-20 Satellite Orbit:

Table of predicted SNOs for the next 14.0 days since TLE Epoch: 1/13/2024
Index Date Time (GOES-15) GOES-15 Lat,Lon NOAA-20 Lat,Lon Distance(km) Time Diff (sec)
1 01/13/2024 09:05:10 0.04, 61.59 0.86, 65.22 414.39 80
2 01/14/2024 21:26:57 -0.05, 61.52 0.29, 59.95 178.26 80
3 01/15/2024 21:05:32 -0.04, 61.54 -0.72, 64.48 336.35 80
4 01/17/2024 09:27:26 0.05, 61.67 -0.50, 59.20 281.55 80
5 01/18/2024 09:11:20 0.04, 61.68 0.51, 63.73 233.49 80
6 01/19/2024 21:33:07 -0.04, 61.61 0.68, 58.47 358.46 80
7 01/20/2024 21:11:41 -0.04, 61.64 -0.33, 63.01 155.83 80
8 01/22/2024 09:33:36 0.03, 61.78 -0.88, 57.72 463.68 80
9 01/23/2024 09:17:30 0.02, 61.81 0.14, 62.25 50.85 80
10 01/25/2024 21:20:31 -0.02, 61.76 0.02, 61.52 26.99 80
11 01/26/2024 20:59:04 -0.02, 61.79 -0.95, 66.07 486.93 80
